Location: Rowland
(34.5359°N, 79.2929°W)
Time: 17:31:26
(UTC+00:00)

A-11 Canister half - Pass Details

Date: 03 October 2022
Orbit: 1515 x 1684 km, 47.2° (Epoch: 06 December)

Event Time Altitude Azimuth Distance (km) Brightness Sun altitude
Rises 01:26:52 0° 234° (SW) 4,858 12.1 -30.8°
Reaches altitude 10° 01:30:02 10° 235° (SW) 3,852 11.5 -31.4°
Maximum altitude 01:39:52 85° 324° (NW) 1,592 8.9 -33.3°
Enters shadow 01:42:16 57° 47° (NE) 1,802 9.1 -33.7°
